Wind_Speed
17 16 15 15 14 13 12 10 8 7 5 3 5 6 6 5 5 5 5 5 6 6 6 6 7 7 8 8 9 9 10 11 11 12 13 13 13 13 13 13 13 13 13 13 13 13 13 13 12
18 17 17 16 15 15 13 11 10 7 6 5 6 7 7 6 6 7 6 7 7 7 7 7 8 8 9 9 9 10 11 12 12 13 13 14 14 14 14 14 14 14 14 14 14 14 14 14 14
20 19 19 17 16 16 14 12 11 9 7 7 8 8 8 7 6 7 7 7 8 8 8 9 10 10 10 10 10 11 12 12 13 14 14 14 14 15 15 15 15 15 15 15 15 15 15 15 15
21 20 19 18 17 16 15 14 13 10 9 9 10 10 10 8 8 8 8 8 8 9 9 10 10 10 11 11 11 12 12 13 13 14 15 15 15 15 15 15 15 15 15 15 15 16 16 16 16
21 21 19 18 17 16 14 14 12 11 11 10 10 11 11 10 9 9 9 9 9 9 10 10 11 11 12 12 12 13 13 13 14 14 15 15 16 16 16 16 16 16 16 16 16 16 16 17 17
22 21 20 19 18 15 14 14 13 11 11 11 11 12 12 11 8 9 10 10 10 10 11 11 12 12 13 13 13 13 13 14 15 15 15 16 17 17 17 17 17 18 18 18 17 17 17 17 18
22 21 21 20 19 16 14 15 14 12 12 12 13 14 15 14 10 10 12 12 12 11 12 12 12 13 13 14 14 14 14 15 15 16 16 17 17 18 18 18 19 19 19 18 18 18 18 19 19
22 22 21 20 18 17 16 15 14 13 12 14 15 16 15 16 13 11 11 11 12 12 13 14 14 14 14 14 14 15 16 16 16 17 17 18 19 19 19 20 21 21 20 20 19 19 19 20 20
21 22 21 20 18 16 16 17 17 16 15 15 15 16 15 15 14 13 12 12 13 14 14 15 15 15 16 16 16 16 17 17 17 18 19 20 21 21 21 21 22 22 22 21 21 21 21 21 22
22 21 21 20 19 16 17 17 17 17 15 15 15 16 16 15 14 15 15 15 15 15 16 16 16 17 17 17 17 17 17 18 18 20 20 20 21 21 22 23 23 23 22 23 23 23 23 23 23
21 21 21 21 20 19 19 18 18 18 17 17 17 16 16 17 17 16 15 16 16 16 17 18 18 18 18 18 19 18 19 19 20 21 21 21 21 22 23 23 24 24 23 23 24 24 24 25 25
20 20 20 21 20 19 19 19 17 17 16 15 16 15 16 17 17 16 16 15 16 18 18 19 19 20 20 20 20 20 20 20 20 21 22 22 22 22 23 23 23 24 24 24 24 24 25 25 25
19 19 19 19 18 18 19 18 19 19 19 18 17 16 17 16 17 17 18 18 17 17 19 19 19 19 21 21 20 20 20 20 21 21 22 22 22 23 24 24 24 25 25 25 25 24 25 25 25
17 18 17 17 17 18 18 18 19 20 19 18 17 17 17 17 17 18 19 19 19 19 19 19 20 21 21 20 20 21 21 21 22 22 23 23 24 24 24 25 25 25 25 25 25 25 25 26 26
17 17 16 15 15 16 19 18 19 19 19 18 18 18 19 19 19 19 19 19 20 20 20 21 21 21 21 20 20 20 20 21 22 22 23 24 24 25 25 25 26 26 25 25 25 25 25 26 26
17 16 16 15 15 16 17 17 19 20 20 19 19 19 19 19 20 20 20 20 20 20 20 20 20 20 21 20 20 21 21 22 23 23 24 25 25 25 26 26 26 26 26 26 26 27 27 27 27
15 15 15 15 15 16 16 17 17 18 18 18 18 18 20 19 21 22 21 20 20 20 19 19 19 20 20 20 22 23 23 24 24 24 25 26 26 26 26 27 27 27 27 27 26 27 27 27 27
13 13 14 13 14 16 17 17 17 17 17 17 18 18 19 20 21 22 20 19 19 19 19 20 19 20 21 21 22 24 25 25 26 26 26 26 27 27 27 28 27 27 27 28 27 28 28 28 28
11 12 13 14 14 16 16 17 18 18 19 18 19 20 21 20 21 20 18 19 19 20 20 21 21 21 22 23 24 24 25 25 25 26 26 27 27 27 28 28 28 28 28 27 28 28 28 28 29
10 11 11 12 13 15 16 17 19 20 20 20 20 20 22 22 22 22 19 19 20 21 19 20 20 21 22 24 25 24 25 25 26 27 27 28 28 28 27 28 27 27 27 27 27 27 27 28 28
8 9 11 12 13 15 16 17 17 19 20 20 20 20 20 22 23 21 22 22 21 21 20 19 19 20 22 23 23 23 25 26 26 27 27 28 28 28 28 27 26 26 26 26 26 26 25 26 26
8 9 11 12 14 14 16 17 17 19 20 21 21 22 21 22 23 23 21 19 18 19 19 20 20 20 21 22 23 24 25 25 26 26 27 27 28 28 28 27 26 25 26 26 26 25 25 25 25
7 10 12 14 15 15 15 18 17 19 19 20 21 22 22 22 21 19 18 19 19 19 19 21 21 21 22 22 23 25 25 26 26 27 26 26 27 27 27 26 26 26 26 26 25 26 25 25 24
8 10 12 13 14 15 15 17 17 16 17 18 18 19 20 20 19 18 17 17 18 18 20 21 21 21 22 23 24 25 25 26 26 26 26 26 27 26 26 26 25 25 25 26 25 25 24 24 24
11 12 13 13 14 14 15 17 16 17 16 15 15 15 16 17 17 17 17 18 17 18 19 20 21 21 22 23 24 25 25 25 26 26 26 26 26 26 25 25 24 24 25 25 24 23 23 23 23
12 13 14 15 15 16 16 17 17 17 16 16 16 15 15 15 16 17 17 17 18 19 20 20 21 22 23 24 24 25 25 25 25 25 26 25 25 24 23 23 23 24 24 23 23 22 21 22 23
12 14 15 16 17 17 18 18 18 17 16 17 17 17 16 16 16 16 16 17 18 18 19 20 21 21 22 23 24 25 24 24 24 24 25 24 24 23 23 23 23 22 22 22 22 21 20 21 21
14 16 17 18 18 18 17 18 18 18 17 16 17 15 15 15 16 17 17 18 18 18 18 20 20 21 22 24 24 24 23 23 23 24 24 23 23 23 22 22 22 21 21 20 20 20 19 19 20
15 16 18 19 19 19 19 18 17 17 16 17 16 14 15 15 15 17 18 19 18 19 19 20 20 22 23 24 24 23 23 23 23 23 23 23 22 22 22 21 21 20 20 20 19 19 19 19 19
14 15 17 18 18 18 20 19 18 17 16 16 16 15 15 16 16 17 18 19 18 19 20 20 20 21 22 23 23 22 22 22 22 22 22 22 22 21 21 21 20 20 19 19 19 18 18 18 19
Wind_Direction
205 203 201 199 201 207 208 201 205 211 229 249 280 295 299 303 313 305 305 311 318 324 321 313 312 310 309 307 305 303 303 303 302 301 300 299 299 298 298 297 296 295 294 291 289 285 283 281 281
206 205 205 204 205 209 209 205 209 218 234 247 268 274 286 289 300 304 299 308 314 316 312 309 309 306 305 304 303 302 301 301 300 299 299 297 296 295 295 295 294 293 291 288 286 284 282 282 281
208 207 207 207 210 212 210 210 215 222 240 258 264 273 279 283 293 300 297 303 307 308 306 306 307 303 300 301 299 299 300 300 300 299 297 296 294 294 293 293 291 289 288 286 283 282 281 280 280
210 207 207 207 207 210 215 217 225 227 244 261 268 275 277 280 286 293 292 298 302 302 303 304 304 302 300 300 298 300 298 298 297 296 295 294 294 293 292 291 290 287 285 284 282 279 278 277 278
209 206 206 207 206 209 218 225 229 239 247 258 267 273 271 270 277 282 288 294 298 301 303 304 305 304 302 301 299 300 299 297 296 294 293 292 291 291 290 289 287 285 282 279 278 277 275 275 276
206 206 207 207 208 212 219 225 237 243 254 259 270 275 278 275 275 281 288 293 294 298 299 301 302 301 300 300 300 301 301 299 298 294 293 292 291 290 289 288 286 284 282 279 278 276 274 273 274
205 206 208 209 210 212 218 227 239 245 258 267 272 278 279 282 283 283 288 290 290 294 295 297 298 299 300 301 300 301 302 302 299 296 293 291 291 290 288 288 288 286 283 281 279 277 275 273 273
205 206 208 210 214 219 224 229 240 243 256 265 271 279 284 284 283 287 288 291 292 292 293 294 296 297 298 298 297 298 300 300 298 297 295 293 291 289 287 286 286 285 282 280 279 278 276 274 273
204 206 209 213 217 219 224 234 243 250 253 258 266 274 278 279 283 287 289 291 290 290 290 292 294 295 295 293 293 296 298 299 297 296 296 293 291 289 288 285 285 284 282 279 278 277 276 275 274
203 206 210 216 219 221 229 235 243 252 258 263 267 270 274 281 285 291 289 288 287 286 288 290 291 292 292 292 292 293 296 295 295 295 295 295 293 291 291 288 285 284 283 281 279 277 277 276 275
204 208 213 218 221 225 230 237 249 257 261 262 267 273 275 282 283 287 288 286 284 287 290 290 290 290 291 292 291 291 294 294 294 294 294 294 294 292 292 290 287 284 283 282 280 278 278 278 277
206 208 214 222 226 229 237 245 253 261 264 267 266 275 279 283 282 285 288 283 280 284 289 290 291 291 289 289 290 290 292 294 294 294 294 294 294 292 290 290 288 284 282 281 280 279 280 277 275
208 213 217 222 225 232 240 247 257 264 263 267 267 273 277 279 281 284 286 287 286 286 289 290 290 292 289 285 287 289 290 291 293 294 293 293 295 292 290 290 289 286 283 280 279 279 279 275 272
209 215 220 227 232 237 243 252 257 264 260 263 269 273 279 281 279 283 284 288 289 289 291 292 290 293 294 289 290 289 290 292 294 295 295 295 295 294 292 291 290 287 284 283 281 280 277 274 271
210 220 226 235 244 249 250 254 258 261 259 265 272 279 284 285 283 286 289 290 292 290 293 294 294 295 295 292 292 291 291 293 295 295 296 297 296 295 295 293 293 289 286 286 285 282 277 273 272
212 219 228 236 246 250 252 254 259 262 270 277 279 282 288 290 288 287 290 292 294 292 292 294 294 296 295 294 295 294 293 296 297 298 298 298 296 295 295 294 293 290 288 287 284 281 278 273 272
213 222 230 240 248 253 257 257 261 265 271 280 281 283 291 294 292 287 289 291 295 296 295 295 295 297 297 297 298 298 297 297 297 298 299 299 298 295 295 294 291 290 288 287 284 280 278 274 272
214 223 231 243 251 255 260 264 267 271 272 278 283 286 289 291 290 288 286 287 293 293 293 296 297 296 298 300 299 300 299 298 298 299 300 299 298 297 296 295 292 289 287 286 283 281 279 275 272
225 229 236 244 254 259 264 267 272 274 279 282 284 287 287 291 288 287 291 290 293 291 292 296 296 296 298 299 300 301 300 300 301 300 299 299 299 298 296 296 292 289 286 285 283 281 279 275 273
236 240 242 245 252 263 265 268 272 278 275 279 285 289 291 294 292 292 296 300 298 296 294 296 297 295 297 297 298 299 300 301 301 300 299 299 299 299 297 296 293 288 285 285 284 281 278 275 274
241 247 244 244 254 261 264 266 270 273 271 280 284 286 289 291 288 291 301 304 301 297 299 298 295 297 300 301 300 298 301 302 302 303 301 300 299 299 297 297 295 291 290 287 284 281 278 275 274
247 249 256 257 261 264 268 268 270 278 278 277 283 285 287 288 290 294 299 302 301 299 299 300 296 300 303 303 303 302 302 302 302 303 302 301 299 297 296 294 293 292 291 289 284 283 281 276 272
258 257 262 260 262 265 270 273 276 279 280 283 283 286 288 291 294 296 298 302 300 297 299 299 301 303 304 303 303 302 302 302 302 302 301 302 301 298 297 295 294 291 288 286 285 284 282 277 272
264 266 265 264 264 265 271 276 282 288 289 290 291 290 292 294 295 296 297 298 299 296 298 302 302 303 304 304 303 304 303 303 303 304 303 303 302 300 297 295 294 291 290 288 286 284 283 277 274
266 269 269 266 267 271 275 283 291 293 297 293 294 293 292 290 290 291 290 295 298 300 300 301 302 304 304 304 305 305 306 305 305 305 306 305 304 303 298 297 294 293 292 290 288 288 284 280 277
269 270 275 278 278 278 278 286 294 296 296 293 294 294 295 295 294 293 298 301 303 300 300 300 301 303 304 306 306 306 306 307 308 307 307 308 308 309 305 302 299 297 294 291 290 289 286 281 278
270 270 276 280 281 283 283 286 289 294 295 294 295 294 294 294 296 299 300 301 301 302 302 302 303 304 306 307 306 307 307 307 308 308 309 310 310 310 309 308 306 301 298 293 290 288 287 284 280
271 272 273 274 281 283 284 287 292 293 291 296 298 295 292 295 297 298 300 303 300 301 301 302 304 304 307 308 306 307 307 309 309 309 310 310 309 310 310 310 309 305 301 297 292 289 288 286 283
268 273 275 275 280 283 287 292 295 296 296 296 295 292 292 294 296 297 298 300 299 299 300 301 302 304 306 307 306 305 307 309 310 310 310 308 308 308 308 308 308 305 302 300 297 293 290 289 287
272 275 278 279 280 283 289 296 298 302 305 304 298 294 295 294 294 297 298 298 296 298 300 301 302 304 306 309 308 307 309 310 311 311 310 309 309 309 309 309 308 306 304 302 301 297 293 292 289
Height
5901 5903 5905 5907 5909 5909 5909 5910 5910 5910 5911 5912 5912 5913 5913 5914 5915 5917 5914 5912 5911 5910 5910 5909 5909 5908 5907 5906 5906 5905 5904 5903 5902 5901 5900 5898 5897 5896 5895 5894 5892 5891 5890 5889 5888 5887 5886 5885 5884
5899 5901 5903 5905 5906 5907 5908 5909 5909 5909 5910 5911 5912 5912 5912 5913 5913 5913 5912 5911 5910 5910 5909 5908 5908 5907 5906 5905 5904 5904 5903 5901 5900 5899 5898 5897 5895 5894 5893 5892 5891 5889 5888 5887 5886 5885 5884 5883 5882
5896 5898 5901 5903 5904 5905 5907 5908 5908 5909 5909 5910 5910 5911 5911 5911 5912 5911 5911 5910 5910 5909 5908 5907 5906 5906 5905 5904 5903 5902 5901 5900 5898 5897 5896 5895 5893 5892 5891 5890 5888 5887 5886 5885 5884 5883 5882 5881 5880
5893 5896 5898 5901 5901 5903 5905 5906 5906 5907 5907 5908 5909 5909 5910 5911 5910 5910 5909 5908 5908 5907 5907 5906 5905 5904 5903 5902 5901 5900 5899 5897 5896 5895 5894 5892 5891 5890 5888 5887 5886 5885 5884 5883 5881 5880 5879 5878 5877
5890 5893 5895 5897 5899 5901 5902 5903 5903 5904 5904 5905 5907 5907 5908 5909 5909 5907 5906 5906 5906 5906 5905 5904 5903 5902 5901 5900 5899 5898 5896 5895 5894 5892 5891 5890 5888 5887 5886 5884 5883 5882 5881 5880 5879 5877 5876 5875 5874
5887 5890 5893 5894 5896 5898 5899 5899 5900 5900 5902 5903 5905 5905 5904 5906 5906 5905 5904 5904 5904 5904 5903 5902 5901 5900 5899 5898 5897 5895 5894 5892 5891 5890 5888 5887 5885 5884 5882 5881 5880 5878 5877 5876 5875 5874 5873 5872 5871
5885 5888 5890 5892 5893 5895 5897 5898 5898 5898 5900 5901 5903 5903 5903 5904 5904 5904 5903 5902 5902 5901 5901 5900 5899 5898 5896 5895 5894 5892 5891 5889 5888 5887 5885 5884 5882 5880 5879 5878 5876 5875 5874 5873 5872 5871 5870 5868 5867
5882 5886 5888 5890 5891 5893 5895 5896 5896 5896 5898 5900 5901 5902 5901 5902 5902 5902 5900 5900 5899 5899 5898 5897 5896 5895 5894 5892 5891 5889 5888 5886 5885 5883 5882 5880 5878 5876 5875 5874 5872 5871 5870 5868 5867 5866 5865 5864 5863
5880 5885 5886 5888 5890 5892 5892 5894 5894 5894 5895 5896 5898 5899 5900 5899 5899 5899 5899 5898 5897 5896 5895 5894 5893 5892 5890 5889 5888 5886 5885 5883 5881 5879 5878 5876 5874 5873 5871 5870 5868 5867 5865 5864 5863 5862 5860 5859 5858
5878 5882 5884 5886 5888 5889 5889 5890 5890 5891 5891 5894 5896 5896 5897 5896 5897 5897 5896 5895 5895 5894 5892 5891 5890 5888 5887 5885 5884 5883 5881 5879 5877 5875 5874 5872 5870 5868 5867 5865 5863 5862 5860 5859 5858 5857 5855 5854 5853
5876 5880 5882 5883 5885 5886 5887 5888 5888 5889 5890 5891 5893 5893 5893 5893 5894 5894 5893 5892 5891 5890 5889 5888 5886 5885 5883 5882 5880 5879 5877 5875 5873 5871 5869 5867 5866 5864 5862 5860 5858 5857 5855 5854 5853 5851 5850 5848 5847
5875 5877 5879 5881 5882 5884 5885 5886 5886 5887 5888 5889 5890 5890 5890 5890 5890 5890 5890 5888 5887 5887 5886 5884 5882 5881 5879 5877 5876 5874 5873 5871 5869 5867 5865 5863 5861 5859 5857 5855 5853 5851 5850 5848 5847 5845 5844 5842 5841
5873 5875 5877 5879 5880 5882 5882 5884 5884 5885 5886 5886 5887 5887 5887 5887 5887 5886 5885 5885 5883 5882 5881 5880 5878 5876 5875 5873 5871 5870 5868 5866 5864 5862 5860 5858 5856 5854 5852 5849 5847 5846 5844 5843 5841 5839 5838 5836 5835
5871 5873 5875 5876 5878 5879 5880 5882 5882 5881 5882 5883 5883 5884 5884 5883 5883 5882 5881 5881 5880 5878 5877 5875 5873 5872 5871 5869 5867 5866 5864 5862 5859 5857 5855 5853 5850 5848 5846 5844 5842 5840 5838 5836 5834 5833 5831 5830 5829
5870 5872 5873 5875 5876 5877 5878 5879 5879 5878 5877 5879 5880 5880 5880 5880 5879 5878 5877 5876 5875 5873 5872 5871 5870 5868 5866 5864 5862 5861 5859 5857 5854 5852 5850 5847 5844 5842 5840 5838 5836 5834 5832 5830 5828 5826 5824 5823 5822
5868 5870 5872 5873 5874 5874 5877 5876 5876 5876 5875 5875 5875 5876 5876 5876 5876 5874 5873 5871 5869 5868 5867 5866 5865 5863 5861 5858 5857 5855 5853 5851 5849 5846 5844 5841 5838 5836 5834 5831 5829 5827 5825 5823 5821 5819 5817 5816 5815
5867 5868 5869 5871 5872 5872 5873 5873 5873 5872 5872 5871 5871 5872 5872 5872 5871 5869 5868 5866 5864 5864 5862 5861 5859 5858 5855 5853 5851 5849 5847 5845 5843 5840 5838 5835 5832 5829 5827 5824 5822 5820 5817 5816 5814 5812 5810 5809 5808
5866 5867 5867 5868 5869 5869 5869 5869 5869 5869 5869 5868 5868 5868 5868 5867 5866 5864 5862 5860 5859 5859 5858 5856 5854 5853 5850 5848 5846 5844 5842 5839 5837 5834 5831 5828 5826 5823 5820 5817 5815 5812 5810 5808 5806 5804 5803 5801 5800
5864 5865 5866 5866 5866 5866 5866 5866 5866 5866 5865 5864 5865 5864 5863 5862 5861 5859 5857 5855 5855 5853 5852 5851 5849 5848 5846 5844 5842 5839 5837 5834 5831 5828 5825 5822 5819 5816 5813 5810 5807 5805 5802 5800 5798 5796 5794 5793 5792
5862 5862 5863 5863 5862 5862 5862 5862 5862 5862 5861 5861 5860 5860 5858 5858 5855 5854 5853 5853 5851 5849 5847 5846 5844 5843 5841 5839 5836 5834 5831 5829 5825 5822 5819 5815 5812 5809 5806 5803 5800 5797 5795 5793 5790 5788 5786 5785 5784
5860 5860 5860 5860 5860 5859 5859 5860 5860 5859 5857 5856 5856 5856 5855 5854 5851 5848 5849 5848 5847 5845 5843 5842 5840 5838 5836 5833 5830 5828 5825 5823 5819 5816 5812 5809 5805 5802 5799 5796 5793 5790 5788 5785 5783 5781 5779 5778 5777
5857 5857 5857 5857 5857 5857 5857 5856 5856 5856 5854 5854 5853 5852 5851 5849 5847 5845 5845 5843 5842 5840 5838 5837 5835 5833 5831 5828 5825 5822 5820 5816 5813 5810 5806 5802 5799 5796 5792 5789 5787 5784 5781 5778 5776 5774 5772 5771 5770
5854 5854 5854 5853 5853 5853 5853 5853 5853 5852 5851 5851 5849 5848 5846 5844 5843 5841 5840 5839 5837 5835 5834 5832 5830 5828 5825 5823 5820 5817 5813 5810 5807 5803 5799 5795 5791 5788 5785 5782 5779 5776 5773 5771 5769 5767 5765 5763 5763
5851 5851 5851 5850 5850 5850 5850 5849 5849 5848 5847 5846 5844 5843 5842 5840 5839 5838 5836 5834 5832 5830 5829 5827 5825 5823 5820 5817 5815 5811 5807 5803 5800 5797 5793 5789 5785 5782 5778 5775 5772 5769 5766 5764 5762 5760 5758 5756 5755
5849 5849 5848 5847 5847 5847 5846 5845 5846 5844 5843 5841 5840 5838 5836 5835 5835 5833 5831 5830 5828 5826 5824 5822 5820 5817 5815 5812 5809 5805 5801 5798 5794 5791 5787 5783 5779 5775 5771 5768 5765 5762 5759 5757 5755 5753 5751 5749 5749
5845 5845 5845 5844 5843 5843 5842 5841 5842 5840 5838 5836 5835 5834 5832 5831 5830 5829 5827 5826 5823 5822 5820 5818 5815 5813 5810 5807 5803 5800 5796 5792 5789 5785 5781 5777 5773 5769 5765 5762 5759 5756 5753 5750 5748 5746 5744 5743 5742
5842 5842 5841 5840 5839 5838 5838 5837 5837 5835 5834 5832 5831 5829 5828 5827 5826 5824 5823 5821 5819 5817 5816 5814 5811 5808 5805 5802 5799 5795 5791 5787 5783 5780 5776 5772 5768 5764 5760 5757 5753 5749 5747 5744 5742 5740 5738 5737 5736
5839 5838 5838 5836 5834 5833 5833 5833 5832 5831 5830 5829 5826 5824 5823 5822 5821 5820 5818 5816 5815 5813 5811 5809 5806 5803 5800 5797 5794 5790 5786 5782 5778 5774 5770 5766 5763 5759 5755 5751 5747 5744 5741 5738 5736 5734 5732 5731 5730
5836 5835 5833 5832 5831 5829 5827 5830 5828 5826 5825 5824 5822 5821 5819 5818 5817 5815 5814 5812 5810 5808 5806 5804 5801 5798 5795 5792 5788 5785 5781 5777 5773 5769 5765 5761 5758 5754 5750 5746 5743 5739 5736 5733 5731 5729 5727 5725 5724
5831 5830 5829 5828 5826 5825 5823 5826 5823 5822 5820 5819 5818 5816 5815 5813 5812 5810 5809 5807 5805 5803 5801 5799 5796 5794 5790 5787 5783 5779 5776 5772 5768 5764 5760 5756 5752 5749 5745 5741 5738 5735 5732 5729 5726 5724 5722 5720 5718